Regional Weather Roundup
Issued by NWS

Home | Current Version | Previous Version | Graphics & Text | Print | Product List | Glossary On
Versions: 1 2 3 4 5 6 7 8 9 10 11 12 13 14 15 16 17 18 19 20 21 22 23 24 25 26 27 28 29 30 31 32 33 34 35 36 37 38 39 40 41 42 43 44 45 46 47 48 49 50
000
ASUS43 KDMX 100901
RWRIA

WEATHER ROUNDUP FOR IOWA
NATIONAL WEATHER SERVICE DES MOINES IA
300 AM CST SAT DEC 10 2016

NOTE: "FAIR" INDICATES FEW OR NO CLOUDS BELOW 12,000 FEET WITH NO
SIGNIFICANT WEATHER AND/OR OBSTRUCTIONS TO VISIBILITY.

* - THESE STATIONS ARE NOT NWS STATIONS...THUS NOT UNDER NWS
QUALITY CONTROL.  THEY ALSO DO NOT REPORT WEATHER SUCH
AS PRECIPITATION OR FOG.

IAZ001>003-012>014-020>022-031>034-043>046-101000-
   NORTHWEST IOWA

CITY           SKY/WX    TMP DP  RH WIND       PRES   REMARKS
CARROLL *      CLOUDY    19  14  79 SE5       30.47S WCI  13
CHEROKEE *     CLOUDY    17  13  84 CALM      30.47S
DENISON *      CLOUDY    21  14  73 CALM      30.44F
LE MARS *      CLOUDY    16  14  93 CALM      30.49R
ORANGE CITY *  FLURRIES  16  14  93 CALM      30.45S
SHELDON *      CLOUDY    10  10 100 E8        30.44S WCI  -1
SIOUX CITY     FLURRIES  20  12  71 CALM      30.49S
SPENCER        CLOUDY    11   8  88 NE8       30.47S WCI  -1
STORM LAKE *   CLOUDY    16  12  86 CALM      30.45S
$$

IAZ055>058-069>071-079>083-090>094-101000-
   SOUTHWEST IOWA

CITY           SKY/WX    TMP DP  RH WIND       PRES   REMARKS
ATLANTIC *     CLOUDY    23  14  68 CALM      30.47F
AUDUBON *      CLOUDY    21  16  79 CALM      30.46F
CLARINDA *     CLOUDY    25  14  63 CALM      30.50S
COUNCIL BLFS * CLOUDY    21  14  73 SE7       30.45F WCI  13
CRESTON *      CLOUDY    21  14  73 SE6       30.48F WCI  14
HARLAN  *      CLOUDY    21  14  73 S3        30.50S
LAMONI         CLOUDY    22  13  68 SE5       30.48F WCI  16
RED OAK *      CLOUDY    23  14  68 CALM      30.48S
SHENANDOAH *   CLOUDY    25  16  68 CALM      30.49R
$$

IAZ047>049-059>061-072>074-084-101000-
   CENTRAL IOWA

CITY           SKY/WX    TMP DP  RH WIND       PRES   REMARKS
AMES           CLOUDY    20  15  81 CALM      30.50F
ANKENY *       CLOUDY    21  14  73 CALM      30.52F
BOONE *        CLOUDY    19  10  68 CALM      30.47F
CHARITON *     CLOUDY    21  16  79 CALM      30.50S
DES MOINES     CLOUDY    23  12  62 CALM      30.51S
GRINNELL*      CLOUDY    20  13  74 CALM      30.52R
KNOXVILLE *    CLOUDY    21  12  68 CALM      30.50S
MARSHALLTOWN   CLOUDY    18  15  88 W3        30.50S
NEWTON *       CLOUDY    19  16  86 CALM      30.50F
PELLA *        CLOUDY    22  15  72 CALM      30.53S
PERRY *        CLOUDY    21  17  82 E3        30.50S
$$

IAZ004>006-015-016-023>025-035-036-101000-
   NORTH CENTRAL IOWA

CITY           SKY/WX    TMP DP  RH WIND       PRES   REMARKS
ALGONA *       LGT SNOW  12  10  92 N7        30.48F WCI   2
CLARION *      CLOUDY    18  14  86 N5        30.47F WCI  11
ESTHERVILLE    CLOUDY     8   5  87 N8        30.47F WCI  -4
FORT DODGE *   CLOUDY    18  10  73 CALM      30.49F
MASON CITY     CLOUDY    12   7  80 N9        30.50S WCI   0
WEBSTER CITY * CLOUDY    18  14  86 CALM      30.46F
IOWA FALLS *   CLOUDY    18  15  86 W3        30.50S
$$

IAZ007>011-017>019-026>030-037>042-050>054-066-101000-
   NORTHEAST IOWA

CITY           SKY/WX    TMP DP  RH WIND       PRES   REMARKS
CEDAR RAPIDS   CLOUDY    17  15  92 W5        30.51S WCI  10
CHARLES CITY * CLOUDY    12  10  92 N5        30.49S WCI   4
CLINTON *      CLOUDY    17  14  88 SW6       30.54R WCI   9
DECORAH *      CLOUDY    12  10  92 VRB3      30.47S
DUBUQUE        CLOUDY    15  13  91 SW5       30.49R WCI   8
MONTICELLO *   CLOUDY    18  14  86 W3        30.52R
OELWEIN *      MOCLDY    14  12  92 W6        30.50R WCI   5
WATERLOO       MOCLDY    16  12  84 W3        30.51S
$$

IAZ064-065-067-068-078-101000-
   EAST CENTRAL IOWA

CITY           SKY/WX    TMP DP  RH WIND       PRES   REMARKS
DAVENPORT      CLOUDY    19  14  81 W6        30.54R WCI  11
IOWA CITY      CLOUDY    21  15  78 CALM      30.55S
MUSCATINE *    CLOUDY    21  16  79 SW5       30.56S WCI  15
QUAD CITIES    CLOUDY    21  14  74 SW3       30.55R
$$

IAZ062-063-075>077-085>089-095>099-101000-
   SOUTHEAST IOWA

CITY           SKY/WX    TMP DP  RH WIND       PRES   REMARKS
BURLINGTON     CLOUDY    21  15  78 CALM      30.55S
FAIRFIELD *    CLOUDY    21  14  73 CALM      30.53S
FORT MADISON * CLOUDY    21  14  73 CALM      30.55F
KEOKUK *       CLOUDY    23  18  80 S3        30.55S
OSKALOOSA *    CLOUDY    21  15  76 CALM      30.52F
CENTERVILLE *  CLOUDY    23  16  74 CALM      30.52S
OTTUMWA        CLOUDY    22  14  71 CALM      30.53S
WASHINGTON *   CLOUDY    21  16  79 SW5       30.55S WCI  15
$$

ABBREVIATIONS USED IN REMARKS
   TC - TEMPERATURES IN CELSIUS
  WCI - WIND CHILL INDEX
   HX - HEAT INDEX
  VSB - VISIBILITY
$$





USA.gov is the U.S. government's official web portal to all federal, state and local government web resources and services.